Home   Weather   Sorocaba   Past weeks

Flag for Brazil Past Weather in Sorocaba, São Paulo, Brazil — Yesterday and Last 2 Weeks

Now
72 °F

Passing clouds.


Feels Like: 69 °F
Forecast: 68 / 74 °F
Wind: 7 mph from Northeast

Location: Campinas Aeroporto

Current Time: Jan 17, 2017 at 7:20:09 am

Latest Report: Jan 17, 2017 at 6:00 am


Visibility: N/A

Pressure: 29.89 "Hg (27.88 "Hg at 602m altitude)

Humidity: 88%

Dew Point: 68 °F

Location of SorocabaLocation

Past Weather in Sorocaba — Graph

°F

Sorocaba Temperature Yesterday

Maximum temperature yesterday: 84 °F (at 4:00 pm)
Minimum temperature yesterday: 34 °F (at 8:00 pm)
Average temperature yesterday: 72 °F

High & Low Weather Summary for the Past Weeks

 TemperatureHumidityPressure
High93 °F (Jan 3, 3:00 pm)100% (Jan 9, 9:00 pm)30.09 "Hg (Jan 9, 9:00 pm)
Low34 °F (Jan 10, 12:00 am)11% (Jan 3, 4:00 pm)29.80 "Hg (Jan 14, 6:00 pm)
Average76 °F61%29.96 "Hg
* Reported Jan 2 6:00 am — Jan 17 6:00 am, Sorocaba, Weather by CustomWeather, © 2017

Note: Actual official high and low records may vary slightly from our data, if they occured in-between our weather recording intervals... More about our weather records

Advertising

Sorocaba Weather History for the Previous 24 Hours

Scroll right to see more
 ConditionsComfort  
Time TempWeatherWind HumidityBarometerVisibility
6:00 am
Tue, Jan 17
72 °FPassing clouds.7 mph88%29.89 "HgN/A
5:00 am70 °FPassing clouds.5 mph94%29.89 "HgN/A
4:00 am70 °FPassing clouds.7 mph94%29.89 "HgN/A
3:00 am70 °FLight rain. Passing clouds.8 mph94%29.89 "HgN/A
2:00 am70 °FLight rain. Passing clouds.10 mph100%29.92 "HgN/A
1:20 am70 °FLight rain. Mostly cloudy.10 mph94%29.92 "HgN/A
1:00 am70 °FRain. Passing clouds.9 mph100%29.95 "Hg3 mi
12:15 am70 °FLight rain. Passing clouds.8 mph100%29.95 "HgN/A
12:00 am70 °FLight rain. Overcast.6 mph100%29.95 "HgN/A
11:15 pm
Mon, Jan 16
70 °FThunderstorms. Overcast.5 mph100%29.98 "HgN/A
11:00 pm70 °FStrong thunderstorms. Fog.5 mph100%29.98 "Hg1 mi
10:00 pm70 °FThunderstorms. Mostly cloudy.12 mph100%N/A4 mi
9:00 pm34 °FThunderstorms. Overcast.8 mph100%29.92 "HgN/A
8:00 pm34 °FThunderstorms. Partly cloudy.6 mph100%29.89 "HgN/A
7:21 pm70 °FThunderstorms. Broken clouds.9 mph94%29.89 "HgN/A
7:04 pm70 °FStrong thunderstorms. Partly sunny.18 mph78%29.89 "Hg0 mi
6:00 pm79 °FScattered showers. Scattered clouds.7 mph48%29.83 "HgN/A
5:00 pm84 °FScattered showers. Scattered clouds.12 mph29%29.83 "HgN/A
4:00 pm84 °FScattered showers. Scattered clouds.13 mph31%29.86 "HgN/A
3:00 pm82 °FBroken clouds.15 mph32%29.89 "HgN/A
2:00 pm82 °FBroken clouds.12 mph37%29.92 "HgN/A
1:00 pm82 °FBroken clouds.12 mph40%29.92 "HgN/A
12:00 pm81 °FScattered clouds.12 mph48%29.95 "HgN/A
11:00 am79 °FScattered clouds.9 mph58%29.95 "HgN/A
10:00 am77 °FBroken clouds.7 mph65%29.95 "HgN/A
9:00 am75 °FBroken clouds.8 mph74%29.95 "HgN/A
8:00 am73 °FBroken clouds.6 mph83%29.92 "HgN/A
7:00 am72 °FScattered clouds.1 mph94%29.95 "HgN/A
Weather by CustomWeather, © 2017

See weather overviewHow to use our weather pages